EW6171 Weather Reports


time (UTC)temp
C
wind
direction
speed
KPH
gust
KPH
rain 1hr
cm
rain 24hr
cm
rain mn
cm
humidity
%
barometer
mb
20260508234108 -17 70 6.4 14.5 0.00 0.00 0.00 1005.8
20260508233559 -17 10 8.0 14.5 0.00 0.00 0.00 1005.8
20260508233048 -17 10 8.0 12.9 0.00 0.00 0.00 1005.3
20260508232539 -17 61 8.0 12.9 0.00 0.00 0.00 1005.2
20260508232028 -17 75 9.7 16.1 0.00 0.00 0.00 1004.9
20260508231009 -17 84 11.3 17.7 0.00 0.00 0.00 1004.7
20260508230731 -17 90 9.7 16.1 0.00 0.00 0.00 1004.9
20260508225948 -17 70 8.0 14.5 0.00 0.00 0.00 1005.2
20260508225439 -17 73 8.0 14.5 0.00 0.00 0.00 1005.2
20260508224929 -17 10 8.0 14.5 0.00 0.00 0.00 1005.3
20260508224649 -17 66 9.7 14.5 0.00 0.00 0.00 1005.3
20260508223909 -17 59 8.0 14.5 0.00 0.00 0.00 1005.4
20260508223359 -17 65 6.4 12.9 0.00 0.00 0.00 1005.4
20260508222849 -17 10 6.4 12.9 0.00 0.00 0.00 1005.5
20260508222339 -17 67 6.4 12.9 0.00 0.00 0.00 1005.5
20260508221828 -17 74 4.8 12.9 0.00 0.00 0.00 1005.8
20260508221549 -17 21 6.4 12.9 0.00 0.00 0.00 1005.8
20260508220800 -17 77 8.0 16.1 0.00 0.00 0.00 1005.7
20260508220242 -17 100 11.3 16.1 0.00 0.00 0.00 1005.4
20260508215222 -17 74 8.0 12.9 0.00 0.00 0.00 1005.7
20260508214713 -17 75 6.4 12.9 0.00 0.00 0.00 1005.7
20260508214204 -17 93 4.8 12.9 0.00 0.00 0.00 1005.7
20260508213653 -17 55 6.4 12.9 0.00 0.00 0.00 1006.1
20260508213143 -17 10 8.0 14.5 0.00 0.00 0.00 1006.0
20260508212633 -17 73 8.0 14.5 0.00 0.00 0.00 1005.9
20260508212123 -17 58 6.4 12.9 0.00 0.00 0.00 1006.0
20260508211612 -17 58 8.0 14.5 0.00 0.00 0.00 1006.2
20260508211102 -17 68 8.0 14.5 0.00 0.00 0.00 1006.3
20260508210552 -17 59 8.0 11.3 0.00 0.00 0.00 1006.4
20260508210042 -17 60 8.0 16.1 0.00 0.00 0.00 1006.4
20260508205532 -17 72 9.7 16.1 0.00 0.00 0.00 1006.5
20260508205022 -17 10 9.7 16.1 0.00 0.00 0.00 1006.4
20260508204512 -17 54 9.7 16.1 0.00 0.00 0.00 1006.5
20260508204004 -17 62 8.0 16.1 0.00 0.00 0.00 1006.6
20260508203450 -17 63 8.0 16.1 0.00 0.00 0.00 1006.7
20260508203212 -17 61 8.0 16.1 0.00 0.00 0.00 1006.9
20260508202430 -17 10 8.0 14.5 0.00 0.00 0.00 1006.9
20260508201916 -17 42 9.7 16.1 0.00 0.00 0.00 1006.9
20260508201408 -17 53 11.3 16.1 0.00 0.00 0.00 1006.9
20260508200900 -17 54 9.7 16.1 0.00 0.00 0.00 1006.8
20260508200354 -17 65 11.3 17.7 0.00 0.00 0.00 1006.9
20260508200115 -17 52 9.7 17.7 0.00 0.00 0.00 1007.0
20260508195335 -17 52 11.3 17.7 0.00 0.00 0.00 1007.0
20260508194829 -17 10 12.9 17.7 0.00 0.00 0.00 1007.0
20260508194554 -17 50 11.3 17.7 0.00 0.00 0.00 1007.2
20260508193808 -17 53 9.7 17.7 0.00 0.00 0.00 1007.1
20260508193300 -17 59 9.7 14.5 0.00 0.00 0.00 1007.2
20260508192752 -17 41 9.7 14.5 0.00 0.00 0.00 1007.3
20260508192249 -17 10 11.3 17.7 0.00 0.00 0.00 1006.4
20260508192013 -17 63 9.7 17.7 0.00 0.00 0.00 1007.2
20260508191232 -17 58 9.7 16.1 0.00 0.00 0.00 1007.4
20260508190714 -17 57 9.7 16.1 0.00 0.00 0.00 1007.5
20260508190209 -17 47 8.0 14.5 0.00 0.00 0.00 1007.6
20260508185206 -17 10 8.0 14.5 0.00 0.00 0.00 1007.6
20260508184701 -17 56 8.0 14.5 0.00 0.00 0.00 1007.5
20260508184152 -17 10 6.4 12.9 0.00 0.00 0.00 1007.5
20260508183648 -17 10 4.8 12.9 0.00 0.00 0.00 1007.5
20260508183140 -17 10 4.8 9.7 0.00 0.00 0.00 1007.6
20260508182632 -17 10 6.4 14.5 0.00 0.00 0.00 1007.6
20260508182125 -17 20 6.4 14.5 0.00 0.00 0.00 1007.7
20260508181621 -17 15 6.4 12.9 0.00 0.00 0.00 1007.9
20260508181115 -17 355 8.0 17.7 0.00 0.00 0.00 1008.0
20260508180842 -17 28 8.0 17.7 0.00 0.00 0.00 1007.9
20260508180109 -17 35 6.4 12.9 0.00 0.00 0.00 1007.9
20260508175608 -17 27 6.4 17.7 0.00 0.00 0.00 1007.9
20260508175105 -17 34 8.0 17.7 0.00 0.00 0.00 1008.1
20260508174834 -17 15 9.7 17.7 0.00 0.00 0.00 1008.2
20260508173547 -17 10 11.3 17.7 0.00 0.00 0.00 1008.1
20260508172535 -17 10 4.8 16.1 0.00 0.00 0.00 1008.0
20260508172031 -17 53 4.8 9.7 0.00 0.00 0.00 1008.0
20260508171520 -17 58 3.2 9.7 0.00 0.00 0.00 1008.1
20260508171016 -17 35 3.2 8.0 0.00 0.00 0.00 1008.1
20260508170736 -17 10 4.8 11.3 0.00 0.00 0.00 1008.1
20260508170002 -17 46 3.2 11.3 0.00 0.00 0.00 1008.2
20260508165458 -17 83 4.8 12.9 0.00 0.00 0.00 1008.2
20260508165219 -17 67 6.4 14.5 0.00 0.00 0.00 1008.1
20260508164442 -17 95 4.8 14.5 0.00 0.00 0.00 1008.2
20260508163933 -17 82 4.8 12.9 0.00 0.00 0.00 1008.3
20260508163422 -17 94 4.8 9.7 0.00 0.00 0.00 1008.5
20260508162911 -17 80 3.2 9.7 0.00 0.00 0.00 1008.5
20260508161852 -17 108 3.2 11.3 0.00 0.00 0.00 1008.4
20260508161341 -17 80 1.6 11.3 0.00 0.00 0.00 1008.5
20260508160837 -17 123 1.6 6.4 0.00 0.00 0.00 1008.6
20260508160327 -17 111 1.6 6.4 0.00 0.00 0.00 1008.6
20260508155818 -17 82 3.2 11.3 0.00 0.00 0.00 1008.6
20260508155308 -17 96 4.8 11.3 0.00 0.00 0.00 1008.5
20260508154757 -17 98 4.8 6.4 0.00 0.00 0.00 1008.7
20260508154247 -17 114 3.2 6.4 0.00 0.00 0.00 1008.8
20260508154007 -17 101 1.6 6.4 0.00 0.00 0.00 1009.0
20260508153227 -17 84 1.6 8.0 0.00 0.00 0.00 1009.0
20260508152717 -17 92 3.2 8.0 0.00 0.00 0.00 1009.0
20260508152438 -17 104 3.2 11.3 0.00 0.00 0.00 1009.1
20260508151929 -17 88 3.2 11.3 0.00 0.00 0.00 1009.1
20260508151147 -17 95 3.2 6.4 0.00 0.00 0.00 1009.1
20260508150637 -17 108 1.6 6.4 0.00 0.00 0.00 1009.3
20260508150128 -17 115 3.2 11.3 0.00 0.00 0.00 1009.3
20260508145617 -17 138 4.8 11.3 0.00 0.00 0.00 1009.4
20260508145107 -17 82 4.8 12.9 0.00 0.00 0.00 1009.4
20260508144557 -17 102 6.4 12.9 0.00 0.00 0.00 1009.3
20260508144048 -17 108 6.4 12.9 0.00 0.00 0.00 1009.2
20260508143809 -17 67 3.2 12.9 0.00 0.00 0.00 1009.3
20260508143027 -17 84 3.2 6.4 0.00 0.00 0.00 1009.5
20260508142517 -17 97 1.6 6.4 0.00 0.00 0.00 1009.7
20260508142008 -17 77 3.2 6.4 0.00 0.00 0.00 1009.8
20260508141458 -17 68 1.6 6.4 0.00 0.00 0.00 1009.7
20260508140947 -17 35 3.2 9.7 0.00 0.00 0.00 1009.6
20260508140437 -17 52 6.4 12.9 0.00 0.00 0.00 1009.4
20260508135928 -17 26 6.4 14.5 0.00 0.00 0.00 1009.3
20260508135650 -17 25 4.8 11.3 0.00 0.00 0.00 1009.4
20260508134908 -17 28 3.2 11.3 0.00 0.00 0.00 1009.5
20260508134357 -17 10 4.8 8.0 0.00 0.00 0.00 1009.7
20260508133847 -17 61 6.4 14.5 0.00 0.00 0.00 1009.5
20260508133337 -17 58 6.4 14.5 0.00 0.00 0.00 1009.5
20260508132827 -17 54 6.4 11.3 0.00 0.00 0.00 1009.6
20260508132548 -17 10 4.8 9.7 0.00 0.00 0.00 1009.8
20260508131807 -17 67 6.4 14.5 0.00 0.00 0.00 1010.0
20260508131257 -17 50 8.0 17.7 0.00 0.00 0.00 1010.1
20260508130748 -17 21 6.4 17.7 0.00 0.00 0.00 1010.1
20260508130510 -17 10 8.0 17.7 0.00 0.00 0.00 1010.4
20260508125952 -17 10 9.7 17.7 0.00 0.00 0.00 1010.5
20260508125441 -17 10 12.9 19.3 0.00 0.00 0.00 1010.5
20260508124658 -17 10 14.5 19.3 0.00 0.00 0.00 1010.3
20260508124145 -17 348 14.5 19.3 0.00 0.00 0.00 1010.3
20260508123633 -17 10 12.9 19.3 0.00 0.00 0.00 1010.1
20260508123354 -17 10 11.3 17.7 0.00 0.00 0.00 1010.0
20260508122613 -17 10 11.3 17.7 0.00 0.00 0.00 1009.8
20260508122332 -17 10 14.5 19.3 0.00 0.00 0.00 1009.7
20260508121551 -17 10 14.5 19.3 0.00 0.00 0.00 1009.7
20260508121312 -17 10 16.1 22.5 0.00 0.00 0.00 1009.7
20260508120531 -17 10 14.5 22.5 0.00 0.00 0.00 1009.8
20260508120022 -17 326 12.9 19.3 0.00 0.00 0.00 1009.8
20260508115511 -17 10 11.3 16.1 0.00 0.00 0.00 1009.9
20260508115001 -17 10 11.3 16.1 0.00 0.00 0.00 1009.9
20260508114452 -17 327 11.3 16.1 0.00 0.00 0.00 1009.9
20260508113941 -17 328 11.3 14.5 0.00 0.00 0.00 1009.8
20260508113432 -17 10 11.3 14.5 0.00 0.00 0.00 1009.8
20260508112920 -17 320 8.0 12.9 0.00 0.00 0.00 1009.7
20260508112407 -17 324 4.8 8.0 0.00 0.00 0.00 1009.4
20260508111857 -17 10 1.6 6.4 0.00 0.00 0.00 1009.0
20260508111347 -17 352 1.6 3.2 0.00 0.00 0.00 1008.9
20260508110838 -17 19 1.6 6.4 0.00 0.00 0.00 1008.7
20260508110335 -17 27 3.2 6.4 0.00 0.00 0.00 1008.6
20260508105825 -17 44 3.2 8.0 0.00 0.00 0.00 1008.6
20260508105316 -17 61 4.8 8.0 0.00 0.00 0.00 1008.6
20260508104805 -17 50 4.8 6.4 0.00 0.00 0.00 1008.8
20260508104246 -17 62 4.8 6.4 0.00 0.00 0.00 1008.9
20260508103736 -17 58 3.2 8.0 0.00 0.00 0.00 1008.9
20260508103225 -17 54 3.2 8.0 0.00 0.00 0.00 1009.0
20260508102715 -17 45 3.2 9.7 0.00 0.00 0.00 1009.2
20260508102437 -17 19 3.2 9.7 0.00 0.00 0.00 1009.2
20260508101656 -17 5 1.6 6.4 0.00 0.00 0.00 1009.3
20260508101145 -17 52 1.6 6.4 0.00 0.00 0.00 1009.3
20260508100635 -17 352 3.2 6.4 0.00 0.00 0.00 1009.6
20260508100125 -17 10 1.6 6.4 0.00 0.00 0.00 1009.8
20260508095618 -17 311 0.0 4.8 0.00 0.00 0.00 1009.9
20260508095107 -17 323 1.6 4.8 0.00 0.00 0.00 1010.0
20260508094600 -17 316 1.6 4.8 0.00 0.00 0.00 1010.1
20260508094049 -17 316 0.0 3.2 0.00 0.00 0.00 1009.9
20260508093540 -17 307 0.0 1.6 0.00 0.00 0.00 1009.8
20260508093300 -17 10 0.0 0.0 0.00 0.00 0.00 1009.4
20260508092521 -17 42 0.0 0.0 0.00 0.00 0.00 1009.1
20260508092011 -17 42 0.0 0.0 0.00 0.00 0.00 1008.9
20260508091505 -17 42 0.0 0.0 0.00 0.00 0.00 1008.9
20260508091228 -17 42 0.0 0.0 0.00 0.00 0.00 1009.0
20260508090457 -17 24 0.0 0.0 0.00 0.00 0.00 1009.3
20260508085953 -17 24 0.0 0.0 0.00 0.00 0.00 1009.5
20260508085441 -17 24 0.0 0.0 0.00 0.00 0.00 1009.5
20260508084935 -17 24 0.0 1.6 0.00 0.00 0.00 1009.5
20260508084430 -17 24 0.0 1.6 0.00 0.00 0.00 1009.4
20260508084159 -17 15 0.0 1.6 0.00 0.00 0.00 1009.5
20260508083653 -17 5 0.0 1.6 0.00 0.00 0.00 1009.8
20260508082919 -17 5 0.0 1.6 0.00 0.00 0.00 1009.8
20260508082413 -17 15 0.0 3.2 0.00 0.00 0.00 1009.8
20260508081909 -17 346 1.6 6.4 0.00 0.00 0.00 1009.9
20260508081402 -17 348 1.6 6.4 0.00 0.00 0.00 1009.6
20260508080900 -17 338 3.2 6.4 0.00 0.00 0.00 1009.6
20260508080354 -17 358 3.2 8.0 0.00 0.00 0.00 1009.5
20260508075851 -17 10 3.2 8.0 0.00 0.00 0.00 1009.5
20260508075350 -17 15 4.8 9.7 0.00 0.00 0.00 1009.5
20260508074850 -17 10 4.8 9.7 0.00 0.00 0.00 1009.6
20260508074334 -17 350 4.8 9.7 0.00 0.00 0.00 1009.6
20260508073825 -17 352 4.8 8.0 0.00 0.00 0.00 1009.7
20260508073555 -17 351 4.8 9.7 0.00 0.00 0.00 1009.9
20260508072826 -17 10 4.8 9.7 0.00 0.00 0.00 1009.8
20260508072320 -17 10 4.8 14.5 0.00 0.00 0.00 1009.9
20260508071818 -17 10 3.2 14.5 0.00 0.00 0.00 1010.0
20260508071312 -17 343 4.8 14.5 0.00 0.00 0.00 1010.2
20260508070806 -17 10 4.8 14.5 0.00 0.00 0.00 1010.4
20260508070300 -17 328 1.6 6.4 0.00 0.00 0.00 1010.5
20260508070028 -17 331 1.6 6.4 0.00 0.00 0.00 1010.6
20260508064742 -17 334 0.0 4.8 0.00 0.00 0.00 1010.6
20260508064504 -17 327 0.0 4.8 0.00 0.00 0.00 1010.5
20260508063221 -17 308 0.0 1.6 0.00 0.00 0.00 1010.7
20260508062714 -17 295 0.0 1.6 0.00 0.00 0.00 1010.8
20260508062435 -17 300 0.0 1.6 0.00 0.00 0.00 1010.7
20260508061658 -17 327 0.0 1.6 0.00 0.00 0.00 1010.5
20260508061150 -17 1 0.0 1.6 0.00 0.00 0.00 1010.5
20260508060640 -17 5 0.0 1.6 0.00 0.00 0.00 1010.5
20260508060136 -17 25 0.0 1.6 0.00 0.00 0.00 1010.4
20260508055633 -17 75 0.0 1.6 0.00 0.00 0.00 1010.3
20260508055124 -17 75 0.0 1.6 0.00 0.00 0.00 1010.4
20260508054103 -17 61 1.6 12.9 0.00 0.00 0.00 1010.4
20260508053553 -17 87 4.8 12.9 0.00 0.00 0.00 1009.9
20260508053042 -17 61 8.0 16.1 0.00 0.00 0.00 1009.6
20260508052532 -17 90 8.0 16.1 0.00 0.00 0.00 1009.6
20260508051512 -17 112 8.0 17.7 0.00 0.00 0.00 1009.3
20260508051002 -17 96 8.0 16.1 0.00 0.00 0.00 1009.3
20260508050452 -17 96 11.3 17.7 0.00 0.00 0.00 1009.0
20260508045942 -17 90 11.3 17.7 0.00 0.00 0.00 1008.9
20260508045432 -17 102 14.5 19.3 0.00 0.00 0.00 1009.1
20260508044921 -17 108 14.5 19.3 0.00 0.00 0.00 1009.1
20260508044416 -17 112 9.7 19.3 0.00 0.00 0.00 1009.3
20260508043906 -17 101 8.0 14.5 0.00 0.00 0.00 1009.8
20260508043357 -17 102 11.3 16.1 0.00 0.00 0.00 1009.8
20260508042846 -17 100 11.3 16.1 0.00 0.00 0.00 1009.3
20260508042335 -17 126 8.0 16.1 0.00 0.00 0.00 1009.5
20260508041825 -17 10 8.0 16.1 0.00 0.00 0.00 1010.0
20260508041315 -17 10 11.3 16.1 0.00 0.00 0.00 1009.8
20260508040811 -17 10 11.3 16.1 0.00 0.00 0.00 1009.6
20260508040532 -17 115 6.4 14.5 0.00 0.00 0.00 1009.6
20260508035752 -17 117 1.6 6.4 0.00 0.00 0.00 1009.8
20260508035247 -17 132 1.6 4.8 0.00 0.00 0.00 1010.3
20260508034743 -17 110 0.0 4.8 0.00 0.00 0.00 1010.4
20260508034233 -17 69 0.0 0.0 0.00 0.00 0.00 1010.8
20260508033724 -17 69 0.0 1.6 0.00 0.00 0.00 1010.6
20260508033443 -17 69 0.0 1.6 0.00 0.00 0.00 1010.9
20260508032703 -17 314 0.0 0.0 0.00 0.00 0.00 1010.9
20260508032153 -17 315 0.0 1.6 0.00 0.00 0.00 1011.2
20260508031643 -17 322 0.0 1.6 0.00 0.00 0.00 1011.2
20260508031133 -17 319 0.0 0.0 0.00 0.00 0.00 1011.0
20260508030629 -17 117 0.0 1.6 0.00 0.00 0.00 1010.9
20260508030117 -17 117 0.0 1.6 0.00 0.00 0.00 1010.6
20260508025608 -17 121 0.0 0.0 0.00 0.00 0.00 1010.5
20260508025057 -17 121 0.0 0.0 0.00 0.00 0.00 1010.8
20260508024547 -17 121 0.0 0.0 0.00 0.00 0.00 1010.9
20260508024037 -17 121 0.0 0.0 0.00 0.00 0.00 1011.1
20260508023527 -17 121 0.0 0.0 0.00 0.00 0.00 1011.4
20260508023017 -17 121 0.0 3.2 0.00 0.00 0.00 1011.4
20260508022507 -17 75 0.0 4.8 0.00 0.00 0.00 1010.8
20260508022000 -17 77 0.0 4.8 0.00 0.00 0.00 1010.5
20260508021459 -17 113 0.0 1.6 0.00 0.00 0.00 1010.6
20260508021218 -17 125 0.0 6.4 0.00 0.00 0.00 1010.6
20260508020437 -17 121 1.6 6.4 0.00 0.00 0.00 1010.6
20260508020200 -17 93 1.6 6.4 0.00 0.00 0.00 1010.4
20260508015418 -17 77 4.8 6.4 0.00 0.00 0.00 1010.2
20260508014908 -17 67 3.2 6.4 0.00 0.00 0.00 1009.9
20260508014407 -17 74 1.6 4.8 0.00 0.00 0.00 1010.2
20260508013905 -17 77 1.6 6.4 0.00 0.00 0.00 1010.4
20260508013402 -17 79 1.6 6.4 0.00 0.00 0.00 1010.4
20260508013132 -17 79 1.6 4.8 0.00 0.00 0.00 1010.2
20260508012401 -17 78 0.0 4.8 0.00 0.00 0.00 1010.2
20260508011851 -17 65 0.0 1.6 0.00 0.00 0.00 1010.4
20260508011342 -17 49 0.0 1.6 0.00 0.00 0.00 1010.3
20260508010831 -17 59 0.0 3.2 0.00 0.00 0.00 1010.3
20260508010321 -17 69 1.6 6.4 0.00 0.00 0.00 1010.1
20260508005812 -17 75 1.6 6.4 0.00 0.00 0.00 1009.9
20260508005305 -17 71 1.6 6.4 0.00 0.00 0.00 1009.9
20260508004752 -17 55 1.6 3.2 0.00 0.00 0.00 1010.1
20260508003221 -17 25 0.0 3.2 0.00 0.00 0.00 1010.2
20260508002709 -17 28 0.0 3.2 0.00 0.00 0.00 1010.2
20260508002159 -17 10 0.0 3.2 0.00 0.00 0.00 1010.2
20260508001648 -17 26 0.0 3.2 0.00 0.00 0.00 1010.1
20260508001137 -17 22 1.6 6.4 0.00 0.00 0.00 1010.1
20260508000117 -17 59 1.6 6.4 0.00 0.00 0.00 1009.9
20260507235609 -17 50 1.6 6.4 0.00 0.00 0.00 1010.0
20260507235059 -17 56 1.6 4.8 0.00 0.00 0.00 1009.9
20260507234549 -17 75 1.6 6.4 0.00 0.00 0.00 1009.9